Location: Ar Ranvel
(48.3000°N, 4.8833°W)
Time: 21:56:02
(UTC+00:00)

Meteor 2-10 Rocket - Pass Details

Date: 30 October 2021
Orbit: 733 x 885 km, 81.2° (Epoch: 30 November)

Event Time Altitude Azimuth Distance (km) Brightness Sun altitude
Rises 18:25:26 0° 195° (SSW) 3,352 7.1 -14.1°
Reaches altitude 10° 18:27:52 10° 197° (SSW) 2,400 6.3 -14.5°
Maximum altitude 18:33:17 74° 282° (WNW) 824 3.8 -15.4°
Drops below altitude 10° 18:38:30 10° 9° (N) 2,319 5.9 -16.3°
Sets 18:40:50 0° 11° (N) 3,230 6.6 -16.7°
